OPS 4682 DEB, 49110

Orbit data source: Space-Track

OPS 4682 DEB, 49110 is space debris in LEO originally from a launch on Sat, 03 Apr 1965 UTC launched from the Air Force Western Test Range (AFWTR). Debris objects in space refer to the collection of defunct objects orbiting the Earth. Examples of debris include non-operational satellites, rocket bodies, and fragments generated from explosions, collisions, or faulty payload assembly.

Loading next visibility...
Identifier
49110, 1965-027FT
Orbit
LEO
Country
Flag of USUS
Related business
Manufacturer
Unknown
Mission
Spacecraft
Bus & Motor
Unknown
Mass
Unknown
Launch date (UTC)
1965-04-03 (61 years ago)
Launch vehicle
Unknown
Launch site
Air Force Western Test Range (AFWTR)
Object type
Payload
Rocket body
Debris
Shape & HBR
Unknown shape, 1.1 m
Radar Cross Section
Medium (>0.1 m² and <1 m²)

Expand to show TLE details & history
Last TLE update: 22 hours ago

TLE from 22 hours ago
0 OPS 4682 DEB
1 49110U 65027FT  26221.15215141 -.00000418  00000-0 -14249-2 0  9995
2 49110  90.2558  14.1120 0036988 248.5668 111.1507 12.99139807443217
Epoch: 2026-08-09T03:39Z
TLE epoch observation values (Epoch: 2026-08-09T03:39:05.881Z)
Latitude
0.00001°
Longitude
1.68425°
Altitude
1,278.635 km
Speed
7.212 km/s
True Right ascension
00h 56m 26s
True Declination
0° 00' 00"
Sunlit
Object was in partial shadow at epoch
Visualization orbit readout
Latitude
Unknown
Longitude
Unknown
Altitude
Unknown
Speed
Unknown
Apparent Right ascension
Unknown
Apparent Declination
Unknown
Sunlit
N/A
Visualization observer readout
Local Sidereal Time
16:05:12
Azimuth
Unknown
Elevation
Unknown
Doppler factor
Unknown
Orbital elements
Apogee altitude
1,290.849 km
Perigee altitude
1,234.326 km
Semi-major axis
7,640.724 km
Eccentricity
0.0037
Inclination
90.2558°
RAAN
14.112°
Arg. of periapsis
248.5668°
True anomaly
111.54534°
Mean anomaly
111.1507°
Eccentric anomaly
111.34808°
Mean motion
3.24969 °/min
Orbital period
110.78 mins
BSTAR
-0.0014249
Loading maneuver chart data...
Computing Atmospheric mass density...
Loading historical data...
Loading historical data...
Loading historical data...
Loading historical data...
Loading historical data...
Loading historical data...
Loading historical data...

Documentation

Showing up to 5 results
|